GFSFLT1_con_mlcape_132.txt.gz
CAPE
85 100 104 22 111 178 420 376 381 329 281 462 522 531 585 905 907 595 336 652 598 612 545 666 839 1385 1197 1396 1551 971 1601 1473 1164
24 84 127 39 106 195 379 409 403 381 259 366 368 346 508 884 933 630 652 805 836 674 891 795 1144 1139 1221 1258 1463 1173 1157 968 1372
29 92 80 136 122 235 293 411 422 470 373 346 293 244 402 574 833 745 889 724 625 486 814 829 1041 1004 1109 1112 1225 1389 1166 897 1407
80 63 54 202 198 267 328 385 381 500 462 418 287 382 361 414 548 592 891 899 918 804 812 841 782 809 777 951 1098 1324 1404 1162 916
183 46 60 197 266 313 336 422 400 521 492 511 429 243 394 518 463 546 539 854 987 1012 1122 501 778 712 638 718 882 1044 1259 1184 958
173 193 80 124 180 155 304 534 560 644 652 664 556 456 391 411 427 576 592 541 840 823 1165 1140 1052 918 1146 924 987 948 1111 1090 1083
347 209 244 70 141 111 263 284 670 761 790 855 741 599 516 520 584 551 606 522 731 836 1156 1117 1164 1331 1306 1331 1133 1260 1229 1172 1172
508 421 323 193 391 250 163 196 302 596 834 1006 974 1001 837 766 875 877 842 652 712 960 1011 1157 1391 1238 1114 1136 1095 887 1055 1263 1166
689 638 507 194 143 152 110 126 66 206 595 716 642 963 999 986 1160 1229 1205 1093 1022 1211 1107 1191 1295 1263 1036 1066 871 345 334 521 846
73 148 480 219 120 19 11 57 37 15 123 271 312 581 458 331 866 669 724 975 956 1117 1091 1010 1005 1069 1031 793 1012 286 150 50 437
1 0 42 51 229 261 251 174 26 0 3 126 353 254 700 388 595 841 909 719 434 336 777 914 876 774 964 998 1080 147 0 0 169
2 2 1 3 5 26 54 36 2 105 47 90 275 178 598 452 413 581 830 814 1024 754 871 758 835 753 728 606 523 0 0 0 48
16 3 0 1 5 7 29 17 32 217 96 92 119 320 337 312 235 213 167 384 486 118 128 59 5 0 4 0 32 0 0 0 78
6 14 22 3 1 0 0 7 56 155 261 215 184 211 238 196 287 184 225 194 60 13 0 0 0 0 0 0 1 3 0 0 3
12 4 4 3 4 2 2 1 92 146 165 132 207 312 321 247 94 31 1 0 2 3 3 1 1 1 1 1 3 3 2 0 0
14 25 1 3 4 4 3 1 13 78 11 33 3 2 3 3 1 2 4 1 1 1 1 0 2 2 0 2 3 2 2 2 2
21 17 9 3 5 5 3 4 1 1 2 3 4 1 2 0 0 0 1 3 5 2 1 3 4 5 3 4 5 2 2 3 1
29 6 3 2 4 5 2 3 4 3 2 1 0 2 3 1 0 0 0 2 2 2 0 3 0 0 0 0 0 0 0 0 0
44 26 3 2 1 2 2 0 3 4 3 1 0 0 1 1 1 1 1 0 0 0 0 0 0 0 0 0 0 0 0 0 0
0 0 2 4 5 3 0 0 0 0 0 0 0 0 2 2 2 2 1 2 2 0 0 0 0 0 0 0 0 0 0 0 0

GFSFLT1_con_mlcape_135.txt.gz
CAPE
156 212 164 74 84 456 321 324 296 400 596 760 755 868 842 983 1019 964 815 999 984 433 706 416 1519 1683 1124 1180 1597 1326 1369 1613 1247
229 384 314 98 86 124 308 313 350 451 627 655 535 633 748 821 1034 917 658 827 976 898 749 857 1149 1147 1123 1205 1238 1405 1196 1173 1032
274 335 238 121 105 130 207 456 438 475 603 688 469 456 615 777 1091 1148 1094 1274 1162 995 777 780 1190 1123 1380 1321 1150 1382 1320 982 878
378 206 147 142 185 169 224 435 504 565 624 618 556 392 403 484 549 822 1011 1014 895 1006 1079 1107 1013 1175 1243 1066 1163 1254 1204 1206 1275
453 279 98 142 151 267 264 430 557 570 685 632 554 424 408 432 522 583 682 1103 913 1078 1043 1075 1086 1197 1260 1195 1032 1093 1377 1279 752
465 315 122 57 117 340 373 492 628 738 796 770 669 444 505 379 401 517 556 863 885 1212 1159 1341 772 1181 1262 1158 1113 1156 1200 1261 1243
563 456 116 61 50 61 235 585 766 1049 947 932 957 714 380 485 627 555 488 615 787 1017 1207 1401 1344 1205 1399 1431 1334 1069 1157 1298 1309
775 323 345 20 24 104 226 538 557 1056 1103 1241 1289 1127 948 832 994 941 926 969 1025 928 1078 1298 1406 1304 1300 1271 1242 1182 1140 1225 1247
517 654 336 194 246 196 166 284 180 369 1112 1041 1398 1158 1214 1310 1141 1103 1172 1101 1086 1052 1149 1271 1270 1205 1177 1134 1128 424 530 687 1106
109 115 202 109 320 198 247 184 159 116 123 413 625 815 944 1099 1157 1220 1246 1409 1159 1137 1344 1072 910 992 992 1093 1234 356 217 237 468
133 62 55 124 79 152 132 178 68 93 104 28 125 528 621 753 879 1085 1177 1228 1157 1046 994 1190 603 1213 1008 770 816 234 194 108 350
95 92 52 50 39 55 91 113 148 55 20 20 15 164 443 453 848 453 624 1006 1184 1079 978 928 734 377 645 815 713 59 49 18 199
152 124 133 61 83 69 58 51 92 87 51 123 52 101 192 190 388 542 437 364 363 795 956 955 688 544 471 54 63 0 0 0 32
169 127 114 108 105 75 22 24 76 178 358 160 95 38 0 90 139 179 146 162 242 299 272 325 215 26 0 0 0 0 0 0 6
197 112 92 68 37 5 4 4 24 156 224 277 162 53 68 25 103 115 83 40 0 0 0 0 1 1 2 3 2 1 1 0 1
114 60 27 19 25 4 2 4 1 66 58 61 106 97 85 37 39 33 2 1 2 2 3 1 1 1 1 1 1 2 6 7 3
122 78 33 18 7 3 1 4 2 2 2 13 30 42 14 8 5 4 6 4 5 2 2 3 1 4 5 4 2 1 1 1 1
148 78 39 26 4 1 1 3 3 3 3 2 2 5 3 4 3 2 1 2 3 4 0 0 1 1 1 1 1 0 0 1 3
152 94 73 60 3 3 1 0 2 1 1 1 2 1 1 1 1 2 5 6 3 0 0 0 0 0 0 0 0 0 0 0 0
49 101 79 20 9 1 0 0 0 0 0 1 3 2 3 2 1 2 3 3 1 0 0 0 0 0 0 0 0 0 0 0 0

GFSFLT1_con_mlcape_138.txt.gz
CAPE
0 0 21 16 86 205 283 164 191 501 1003 722 630 1063 1091 1191 913 884 253 1016 693 454 509 559 1436 1140 1415 1174 1598 1433 1243 1505 1763
31 32 41 89 222 191 239 124 338 575 1056 980 861 659 888 786 1086 1154 825 806 844 748 1249 1236 1443 1374 1148 1322 874 1378 1341 1250 1132
194 335 122 132 184 384 259 231 140 828 847 946 842 777 618 551 787 1015 1235 762 651 719 1153 843 528 938 1019 834 1156 1181 1239 964 1102
436 166 293 286 71 44 187 270 265 777 850 875 763 553 815 827 1006 1026 686 783 659 2 1149 1242 1335 839 303 1222 1177 1285 1243 1006 1128
313 415 480 532 135 42 49 553 497 387 839 976 635 522 773 669 917 999 983 796 1003 1008 1206 1082 1278 1049 951 1064 1276 1078 1201 1205 1021
892 653 458 366 347 139 304 648 592 761 570 746 586 636 515 567 432 1008 1037 978 875 954 984 1143 1310 1398 1289 1159 1309 1097 1170 1061 1070
846 755 513 310 261 56 49 1 125 1043 863 967 677 515 615 395 696 466 671 879 1002 1068 1025 794 951 1229 1460 1519 1468 1208 1098 1147 1063
935 930 425 190 48 16 16 0 0 168 213 572 841 546 571 730 628 781 948 876 1110 1131 1076 979 1075 917 897 1149 1047 1008 1084 985 1192
1002 812 693 112 130 68 39 30 40 65 112 0 772 1122 705 629 780 801 852 1068 967 835 816 974 1087 1126 1269 1044 882 637 539 1065 626
411 313 512 496 486 152 104 1 3 58 344 333 404 520 687 1051 743 968 869 934 797 745 763 872 985 1087 708 830 1243 598 471 364 617
328 265 142 124 152 203 229 266 126 129 238 260 288 518 758 933 1222 1156 1186 921 716 687 769 1007 806 435 421 475 758 317 237 296 577
296 284 266 138 65 64 97 185 258 136 85 79 107 163 198 332 950 732 847 888 885 994 1033 1170 1197 1102 526 460 296 45 17 90 649
364 278 151 119 112 77 92 120 86 133 207 182 117 39 69 107 180 396 475 442 322 424 426 685 1092 989 804 210 24 0 0 10 64
345 259 196 76 54 31 3 8 18 88 161 377 350 125 44 24 48 135 64 27 21 26 51 117 103 135 22 1 2 1 0 0 0
293 190 64 8 2 2 2 1 1 79 139 185 334 167 19 11 32 10 0 0 0 0 0 0 0 0 0 2 2 0 0 0 0
333 131 31 4 1 1 2 3 1 0 2 91 135 188 63 1 0 1 1 0 2 0 0 0 0 1 1 1 2 2 2 3 1
354 208 75 1 1 4 0 4 1 0 0 6 47 25 42 3 2 2 2 3 2 1 3 3 2 3 3 3 3 2 2 2 1
448 180 20 2 0 2 2 4 1 1 0 0 0 1 1 2 1 0 0 1 1 1 0 0 1 0 1 2 0 0 0 2 1
369 202 100 188 5 1 2 3 2 2 1 0 0 0 0 0 0 2 1 0 0 0 0 0 0 0 0 0 0 0 0 0 0
335 203 216 151 114 19 3 2 1 0 2 0 0 1 3 2 1 3 2 2 0 0 0 0 0 0 0 0 0 0 0 0 0

GFSFLT1_con_mlcape_141.txt.gz
CAPE
6 0 0 17 1 3 5 384 781 698 264 139 406 433 304 698 624 549 451 548 324 457 696 581 606 812 1257 1322 1542 1378 969 1458 1276
239 1 0 22 0 1 2 36 646 750 362 164 199 306 440 619 958 555 281 304 976 913 719 667 598 1261 1216 1137 1077 1533 1165 827 911
29 16 0 33 1 4 51 43 774 806 392 292 148 223 800 816 731 748 596 586 721 678 960 987 1296 666 909 1170 1106 1086 1388 1056 1019
15 38 15 26 18 18 66 106 319 704 640 367 137 156 467 492 398 557 797 866 363 420 475 972 705 760 623 901 1085 1149 1119 1101 953
210 356 243 139 106 137 134 146 176 717 713 615 448 335 369 323 168 480 511 592 494 533 7 683 1181 886 510 161 781 927 837 1072 875
0 435 527 288 213 156 38 187 185 255 658 630 563 348 658 486 338 535 788 500 400 623 732 858 994 993 676 705 856 1020 1055 1261 1203
546 552 455 318 180 28 20 19 66 46 49 317 299 457 474 565 730 510 531 728 759 743 713 733 806 732 1088 1194 1012 862 1001 1048 1017
942 774 329 105 157 84 85 9 7 27 7 0 3 31 139 521 667 538 810 906 848 769 814 787 785 619 838 1220 1326 1235 984 1095 1151
484 608 493 241 94 77 12 0 0 0 17 0 0 0 0 175 506 613 457 678 721 809 603 625 760 732 824 677 779 853 667 635 806
291 315 414 365 273 197 67 2 0 0 3 20 0 0 0 0 726 681 604 604 662 664 711 875 922 860 835 887 1204 883 667 463 623
308 289 208 183 142 171 122 73 29 28 84 137 80 2 3 4 212 557 561 418 527 463 532 537 506 630 620 575 496 367 285 271 325
217 330 230 126 68 55 87 123 169 142 74 62 99 75 113 162 330 196 397 348 373 444 364 393 407 363 336 335 173 21 25 94 196
244 105 138 96 73 40 22 5 0 25 29 97 99 22 76 87 119 311 334 419 398 262 269 215 221 81 30 29 0 0 0 0 39
223 138 42 2 0 0 0 0 0 6 58 96 350 284 77 108 141 125 37 1 0 0 0 4 0 0 0 0 1 0 0 0 0
203 81 0 2 0 0 0 0 0 20 36 54 253 118 123 157 97 10 0 0 0 0 0 0 0 0 0 4 3 1 1 0 0
216 76 0 1 2 0 1 0 1 0 0 20 196 103 66 43 12 1 0 0 0 0 0 0 0 0 0 0 2 0 0 0 0
252 137 1 1 0 1 0 0 1 0 0 2 37 83 0 0 0 0 0 0 1 3 2 3 3 0 0 1 2 2 2 1 3
199 28 23 1 0 0 0 2 1 1 0 0 0 1 1 0 0 0 0 0 0 0 0 0 1 1 1 1 0 0 0 1 1
148 31 44 5 1 0 1 1 2 0 0 0 0 0 0 0 0 0 0 0 0 0 0 0 0 0 0 0 0 0 0 0 0
190 181 114 53 5 0 0 0 0 0 0 0 0 0 0 1 1 0 0 0 0 0 0 0 0 0 0 0 0 0 0 0 0

GFSFLT1_con_mlcape_144.txt.gz
CAPE
0 5 30 37 42 12 210 511 500 484 414 322 213 306 446 685 755 624 613 629 363 586 556 438 440 883 949 969 1076 862 706 1184 958
0 0 0 12 46 11 54 394 536 463 327 66 111 250 354 478 630 572 404 656 706 517 616 531 569 455 618 997 1021 1103 772 586 479
0 0 0 0 66 77 30 262 478 539 375 29 117 459 287 249 606 546 449 282 516 842 685 784 753 589 692 758 898 824 1150 1020 661
0 0 29 9 55 113 75 113 489 658 507 204 107 278 362 247 453 738 455 499 359 711 730 928 838 947 978 810 861 995 1064 1020 887
0 0 157 91 64 110 104 186 306 598 582 428 314 288 401 434 418 648 528 382 628 399 454 871 880 774 604 623 928 915 957 966 841
0 16 97 194 119 36 98 297 545 660 593 523 429 360 275 531 523 535 442 382 523 477 292 315 1015 811 703 493 394 667 780 782 770
1 9 45 268 300 160 54 103 79 179 145 135 96 136 286 281 399 356 321 437 478 447 379 498 481 918 749 679 494 700 785 1034 1064
70 24 150 138 112 124 66 71 70 7 3 0 3 2 9 124 219 385 374 541 594 493 385 544 646 657 764 779 989 978 904 843 925
186 202 247 232 215 178 35 21 59 50 26 0 0 0 0 1 0 52 340 464 537 599 688 664 592 635 682 567 910 1173 998 935 844
273 170 176 329 301 173 116 20 0 0 0 3 2 0 0 0 0 0 121 340 460 488 441 538 571 620 647 642 709 659 690 737 600
382 293 275 233 209 189 188 190 92 14 12 1 0 1 0 0 0 0 37 267 461 456 344 517 517 473 655 694 739 572 520 454 430
242 269 169 131 97 87 134 98 54 51 71 56 70 29 4 1 0 0 0 112 242 246 348 375 415 575 627 491 149 37 63 136 261
186 108 119 92 29 10 0 0 0 0 25 50 40 23 46 70 28 7 1 0 158 211 232 281 151 120 142 76 4 0 0 21 84
187 98 13 0 0 0 0 0 0 2 53 101 148 248 165 85 45 83 80 73 48 49 19 10 0 0 1 1 2 1 0 0 20
113 27 1 0 0 0 0 0 0 1 16 26 226 172 83 40 22 0 2 0 0 0 0 0 0 0 0 3 3 0 0 0 0
109 14 0 0 0 0 0 0 0 0 0 18 161 85 58 6 0 0 0 0 0 0 0 0 0 0 1 2 3 1 0 0 0
50 1 0 0 0 1 0 0 1 0 0 2 113 23 0 0 0 0 0 0 0 0 1 1 1 1 2 1 2 1 2 1 3
46 0 0 0 0 0 1 1 0 0 0 2 0 0 0 0 0 0 0 0 0 0 0 0 0 1 1 0 0 1 1 1 1
38 3 0 0 1 0 0 0 0 0 0 0 0 0 0 0 0 0 0 0 0 0 0 0 0 0 0 0 0 0 0 1 1
54 45 52 7 1 0 0 0 0 0 0 0 0 0 0 0 0 0 0 0 0 0 0 0 0 0 0 0 0 0 0 0 0

GFSFLT1_con_mlcape_147.txt.gz
CAPE
21 0 97 128 122 135 205 187 242 235 186 183 262 313 219 292 382 362 451 374 303 282 551 447 557 517 791 730 736 771 738 868 824
56 13 5 72 108 100 237 264 268 272 229 199 191 241 260 282 403 377 442 520 550 424 405 456 498 348 792 794 903 877 680 598 829
79 52 23 6 69 30 76 280 379 363 306 241 206 224 248 323 380 514 505 450 497 558 459 474 548 512 519 587 798 864 883 753 483
0 33 34 24 7 38 27 169 363 460 430 317 225 156 218 243 365 504 438 341 355 505 570 576 571 645 654 524 567 715 722 813 834
10 58 91 196 61 49 47 87 243 392 481 365 172 62 66 197 265 337 431 306 319 347 510 519 518 653 532 620 702 556 684 794 816
0 23 173 103 40 34 98 86 119 393 505 413 216 106 72 207 266 242 329 447 310 363 405 446 534 545 510 443 459 531 552 541 697
0 0 56 215 88 121 170 163 215 240 254 241 267 279 170 162 228 287 256 485 450 282 400 333 328 647 603 542 471 388 452 595 689
6 0 0 16 117 124 171 134 164 148 109 68 75 146 217 249 220 294 344 432 500 396 368 434 357 330 526 707 617 611 553 632 806
29 0 1 12 8 68 100 40 108 158 120 8 0 2 32 7 4 110 236 277 315 263 317 358 384 395 498 618 776 802 766 866 853
285 122 298 186 143 227 135 59 75 98 102 107 40 5 0 0 0 0 0 86 247 280 269 360 402 457 458 540 602 604 658 606 630
302 282 313 250 276 229 123 113 63 88 72 34 44 7 4 1 0 0 0 0 86 244 186 209 315 395 526 488 443 438 462 515 576
291 248 238 209 209 191 171 130 113 100 119 144 9 3 0 0 1 0 0 0 3 60 157 194 303 288 273 331 327 126 297 430 473
262 252 212 149 41 0 0 0 1 45 69 94 69 59 47 17 9 1 0 4 0 7 67 128 151 114 76 87 13 0 0 10 197
144 61 19 0 0 0 0 0 0 0 29 63 57 180 122 61 72 41 12 14 2 0 1 12 15 14 0 1 2 1 0 0 3
28 0 0 0 0 0 0 0 0 8 13 0 102 152 72 12 10 16 5 5 0 0 0 2 1 2 1 1 3 2 0 0 0
0 0 0 0 0 0 0 0 0 0 0 0 140 77 11 0 0 0 0 0 0 0 0 0 0 0 0 2 2 2 1 0 0
7 0 0 0 0 0 0 0 0 0 0 0 50 16 0 0 0 0 0 0 0 0 0 0 1 1 0 1 1 0 1 1 1
42 0 0 0 0 0 0 0 0 0 0 2 0 0 0 0 0 0 0 0 0 0 0 0 0 2 2 0 0 1 1 1 0
85 21 0 0 0 0 0 0 0 0 0 0 0 0 0 0 0 0 0 0 0 0 0 0 0 0 0 0 0 1 1 0 1
15 27 19 1 0 0 0 0 0 0 0 0 0 0 0 0 0 0 0 0 0 0 0 0 0 0 0 0 0 0 1 1 0

GFSFLT1_con_mlcape_150.txt.gz
CAPE
85 16 45 91 62 100 151 146 152 172 151 191 108 73 175 304 196 217 184 249 260 295 524 386 352 583 605 562 481 405 580 723 769
57 21 23 132 91 108 102 105 129 176 163 155 104 92 71 238 239 240 196 238 345 339 270 379 465 393 461 570 567 660 727 590 692
16 19 17 5 139 99 122 136 121 150 170 121 71 112 117 220 198 213 249 218 356 404 408 350 366 398 340 408 568 668 782 626 543
0 0 7 1 26 60 71 187 183 210 196 124 94 83 128 209 200 242 304 253 344 438 501 393 380 401 397 393 440 433 625 709 736
27 39 65 90 102 28 22 128 300 314 292 268 161 77 103 139 143 238 350 408 332 224 389 499 425 465 514 524 495 494 446 537 653
0 30 251 99 71 81 12 25 237 304 365 382 307 158 157 197 144 140 227 376 411 302 219 358 480 399 393 394 400 477 482 526 545
3 1 130 164 35 47 9 13 119 257 331 434 414 231 169 184 103 34 129 268 329 396 317 269 266 455 488 428 378 381 456 537 531
14 0 20 70 150 87 56 85 114 168 215 212 159 192 171 142 137 112 136 178 261 251 351 324 300 310 402 540 460 484 466 432 419
76 7 0 1 49 67 52 71 210 231 184 119 52 40 101 117 133 134 168 207 217 256 294 420 393 340 354 295 385 477 471 533 613
396 269 217 6 22 5 83 159 159 65 13 46 13 6 0 2 8 8 17 19 166 252 351 399 339 259 324 358 377 355 398 456 481
415 370 296 311 149 88 83 88 94 63 37 13 18 10 6 0 0 1 0 0 1 40 161 230 272 261 337 402 422 336 339 304 358
367 420 335 213 187 119 75 98 132 129 97 98 32 2 7 8 0 0 0 2 0 0 11 68 206 251 227 291 327 35 8 70 411
315 269 270 196 139 97 66 31 16 52 38 67 53 27 20 0 0 1 0 0 2 6 4 6 76 27 27 51 0 0 0 0 110
136 130 47 0 0 15 0 0 0 1 21 45 24 29 99 39 34 14 19 33 25 8 0 0 0 0 0 0 1 1 0 0 12
21 0 0 0 0 0 0 0 0 17 22 3 50 143 87 30 12 3 1 3 0 1 1 0 0 0 0 2 1 2 1 0 0
3 0 0 0 0 0 0 0 0 0 0 0 126 89 23 0 0 0 0 0 0 0 0 1 1 0 0 1 2 0 0 0 0
0 0 0 0 0 0 0 0 0 0 0 2 2 0 0 0 0 0 0 0 0 0 0 1 1 1 1 2 2 2 1 1 1
0 0 0 0 0 0 0 0 0 0 1 7 0 0 0 0 0 0 0 0 0 0 0 0 1 1 1 1 0 0 0 1 1
7 0 0 0 0 0 0 0 0 1 1 4 1 0 0 0 0 0 0 0 0 0 0 0 0 0 0 0 0 0 1 1 1
26 0 0 0 0 0 0 0 0 0 3 0 0 0 0 0 0 0 0 0 0 0 0 0 0 0 0 0 0 1 1 0 0